Simultaneous Nadir Overpasses (SNOs) Predictions

Prediction of SNOs between GOES-16 and LANDSAT-8 Satellite Orbit:

Table of predicted SNOs for the next 14.0 days since TLE Epoch: 1/25/2020
Index Date Time (GOES-16) GOES-16 Lat,Lon LANDSAT-8 Lat,Lon Distance(km) Time Diff (sec)
1 01/25/2020 03:00:13 0.01, -75.19 0.74, -71.69 397.12 80
2 01/25/2020 15:18:49 -0.01, -75.20 0.32, -76.86 188.41 80
3 01/27/2020 15:09:17 -0.01, -75.20 -0.30, -73.90 148.33 80
4 01/28/2020 03:28:01 0.01, -75.19 -0.80, -79.09 442.97 80
5 01/29/2020 14:57:05 -0.00, -75.21 -0.93, -70.94 485.76 80
6 01/30/2020 03:15:49 0.01, -75.21 -0.17, -76.13 105.36 80
7 02/01/2020 03:06:17 0.01, -75.22 0.46, -73.18 232.76 80
8 02/01/2020 15:24:52 -0.02, -75.24 0.67, -78.33 352.27 80
9 02/03/2020 15:12:40 -0.02, -75.26 0.03, -75.37 14.11 80
10 02/05/2020 15:03:08 -0.02, -75.28 -0.60, -72.42 324.76 80
11 02/06/2020 03:21:52 0.03, -75.27 -0.50, -77.61 266.14 80




NCC Satellite Simultaneous Nadir Overpasses (SNOs) Prediction Service
